Meteo Giornale » Osservazioni meteo Italia » Milano-Linate

ore: 05:20 - Osservazioni Meteo Milano-Linate
Lat. 45° 26' N Lon. 9° 17' E Alt. 107 metri s.l.m.

nuvoloso Europe/Rome

20 °C

Nuvoloso

Temp. 24 Ore

20 °C

27 °C

Est/Sud-Est

7.4 Km/h

Dew point 18 °C

Umidità 88 %

Visibilità  10 Km

Il sole sorge alle ore 06:01

Il sole tramonta alle ore 20:57

Data e Ora Cielo e Fenomeni T °C DP °C Um. % Pres. hPa Vis. km Vento km/h
Oggi h: 05:20 nuvoloso Nuvoloso 20 18 88 1014 10 E/SE 7.4
Oggi h: 04:50 nuvoloso Nuvoloso 20 19 93 1014 10 E 9.3
Oggi h: 04:20 nuvoloso Nuvoloso 21 19 88 1014 10 E/NE 9.3
Oggi h: 03:50 nuvoloso Nuvoloso 21 19 88 1014 10 E 9.3
Oggi h: 03:20 nuvoloso Nuvoloso 21 19 88 1015 10 E/SE 11.1
Oggi h: 02:50 nuvoloso Nuvoloso 21 19 88 1015 10 E 9.3
Oggi h: 02:20 nuvoloso Nuvoloso 22 19 83 1015 10 E 9.3
Oggi h: 01:50 molto_nuvoloso Molto Nuvoloso 22 19 83 1015 10 E/SE 9.3
Oggi h: 01:20 nuvoloso Nuvoloso 22 19 83 1015 10 SE 13
Oggi h: 00:50 nuvoloso Nuvoloso 22 20 88 1015 10 SE 13
Oggi h: 00:20 nuvoloso Nuvoloso 23 20 83 1015 10 SE 11.1
Ieri h: 23:50 nuvoloso Nuvoloso 23 20 83 1015 10 E 9.3
Ieri h: 23:20 poco_nuvoloso Poco Nuvoloso 23 21 88 1015 10 E/SE 7.4
Ieri h: 22:50 poco_nuvoloso Poco Nuvoloso 23 20 83 1015 10 N 5.5
Ieri h: 22:20 poco_nuvoloso Poco Nuvoloso 23 21 88 1014 10 E/SE 7.4
Ieri h: 21:50 nuvoloso Nuvoloso 23 21 88 1014 10 E 11.1
Ieri h: 21:20 molto_nuvoloso Molto Nuvoloso 24 21 83 1014 10 SE 11.1
Ieri h: 20:50 coperto_pioggia Pioggia Debole 24 22 88 1014 10 N 3.7
Ieri h: 20:20 coperto_pioggia Pioggia Debole 24 21 83 1014 10 N 5.5
Ieri h: 19:50 nuvoloso_piovaschi Debole Rovescio di Pioggia 24 20 78 1014 10 NE 9.3
Ieri h: 19:20 nuvoloso Nuvoloso 25 20 73 1014 10 E/NE 9.3
Ieri h: 18:50 nuvoloso Nuvoloso 25 21 78 1014 10 E/NE 14.8
Ieri h: 18:20 nuvoloso Nuvoloso 25 21 78 1014 10 N/NE 13
Ieri h: 17:50 nuvoloso Nuvoloso 27 22 74 1014 10 E/SE 9.3
Ieri h: 17:20 molto_nuvoloso Molto Nuvoloso 26 20 69 1014 10 S 11.1
Ieri h: 16:50 nuvoloso Rovescio nelle Vicinanze 27 21 69 1014 8 SE 14.8
Ieri h: 16:20 molto_nuvoloso Molto Nuvoloso 26 21 73 1014 10 S 13
Ieri h: 15:50 nuvoloso_piovaschi Debole Rovescio di Pioggia 27 22 74 1014 10 S 7.4
Ieri h: 15:20 molto_nuvoloso Molto Nuvoloso 27 22 74 1015 10 N 3.7
Ieri h: 14:50 nuvoloso Nuvoloso 25 22 83 1015 7 NE 9.3
Ieri h: 14:20 nuvoloso_temporali Temporale con Pioggia Debole 25 22 83 1015 6 NE 7.4
Ieri h: 13:50 nuvoloso_temporali Temporale con Pioggia 25 21 78 1015 6 N/NE 9.3
Ieri h: 13:20 nuvoloso Nuvoloso 27 20 65 1015 10 NE 11.1
Ieri h: 12:50 molto_nuvoloso Molto Nuvoloso 26 19 65 1016 10 N 13
Ieri h: 12:20 molto_nuvoloso Molto Nuvoloso 26 20 69 1016 10 NE 9.3
Ieri h: 11:50 molto_nuvoloso Molto Nuvoloso 26 21 73 1016 10 E/NE 11.1
Ieri h: 11:20 molto_nuvoloso Molto Nuvoloso 26 20 69 1016 10 E 13
Ieri h: 10:50 nuvoloso Nuvoloso 25 20 73 1016 10 E/NE 13
Ieri h: 10:20 nuvoloso Nuvoloso 25 19 69 1015 10 E/NE 9.3
Ieri h: 09:50 nuvoloso Nuvoloso 23 18 73 1016 10 E/NE 9.3
Ieri h: 09:20 nuvoloso Nuvoloso 24 18 69 1015 10 E/SE 9.3
Ieri h: 08:50 molto_nuvoloso Molto Nuvoloso 23 18 73 1015 10 E 9.3
Ieri h: 08:20 molto_nuvoloso Molto Nuvoloso 22 18 78 1015 10 NE 11.1
Ieri h: 07:50 molto_nuvoloso Molto Nuvoloso 22 18 78 1015 10 E/NE 7.4
Ieri h: 07:20 molto_nuvoloso Molto Nuvoloso 21 18 82 1015 10 NE 7.4
Ieri h: 06:50 nuvoloso Nuvoloso 21 18 82 1014 10 E 7.4
Ieri h: 06:20 molto_nuvoloso Molto Nuvoloso 22 18 78 1015 10 E/NE 7.4
Ieri h: 05:50 molto_nuvoloso Molto Nuvoloso 22 18 78 1015 10 E 7.4